Regional Weather Roundup
Issued by NWS

Home | Current Version | Previous Version | Text Only | Print | Product List | Glossary On
Versions: 1 2 3 4 5 6 7 8 9 10 11 12 13 14 15 16 17 18 19 20 21 22 23 24 25 26 27 28 29 30 31 32 33 34 35 36 37 38 39 40 41 42 43 44 45 46 47 48 49 50
561
ASUS44 KOUN 310200
RWROK

WEATHER ROUNDUP FOR OKLAHOMA
NATIONAL WEATHER SERVICE NORMAN OK
900 PM CDT SAT JUL 30 2016

NOTE: "FAIR" INDICATES FEW OR NO CLOUDS BELOW 12,000 FEET WITH NO
      SIGNIFICANT WEATHER AND/OR OBSTRUCTIONS TO VISIBILITY.

OKZ001>007-009>012-014-015-017-310300-
NORTHWEST OKLAHOMA AND THE PANHANDLE

CITY           SKY/WX    TMP DP  RH WIND       PRES   REMARKS
GAGE           CLEAR     86  67  52 S13       29.90R
GUYMON         CLEAR     86  60  41 S12       29.88S
ENID/WOODRING  PTCLDY    84  75  74 E12       29.89R HX  92
$$

OKZ016-021>023-033>039-044-045-310300-
SOUTHWEST OKLAHOMA

CITY           SKY/WX    TMP DP  RH WIND       PRES   REMARKS
LAWTON/REGL    CLOUDY    81  72  74 E7        29.88S
FREDERICK        N/A    N/A N/A N/A MISG      29.85S
CLINTON        PTCLDY    86  69  56 SE6       29.93R HX  90
$$

OKZ018>020-024>031-310300-
CENTRAL OKLAHOMA

CITY           SKY/WX    TMP DP  RH WIND       PRES   REMARKS
OKLAHOMA CITY  CLOUDY    84  75  74 SE12      29.90S HX  92
OKC/WILEY POST CLEAR     86  75  69 E10       29.90R HX  95
OKC/TINKER AFB CLEAR     82  75  80 E8        29.91R
STILLWATER     CLEAR     82  72  71 SE9       29.91S
GUTHRIE        PTCLDY    82  75  79 E9        29.90S
$$

OKZ008-013-054>072-310300-
NORTHEAST OKLAHOMA

CITY           SKY/WX    TMP DP  RH WIND       PRES   REMARKS
TULSA          PTCLDY    79  72  79 E5        29.92R
TULSA/JONES    CLEAR     81  72  74 E5        29.93R
PONCA CITY     CLEAR     81  71  71 SE8       29.91R
BARTLESVILLE   CLEAR     75  70  84 CALM      29.93S
MUSKOGEE       PTCLDY    80  73  79 SE6       29.95R
$$

OKZ032-040>043-046>053-073>077-310300-
SOUTH CENTRAL/SOUTHEAST OKLAHOMA

CITY           SKY/WX    TMP DP  RH WIND       PRES   REMARKS
MCALESTER      PTCLDY    80  72  76 E5        29.93R
$$





USA.gov is the U.S. government's official web portal to all federal, state and local government web resources and services.